Regional Weather Roundup
Issued by NWS Kansas City/Pleasant Hill, MO

Home | Current Version | Previous Version | Graphics & Text | Print | Product List | Glossary Off
Versions: 1 2 3 4 5 6 7 8 9 10 11 12 13 14 15 16 17 18 19 20 21 22 23 24 25 26 27

000
ASUS43 KEAX 271710
RWREAX

WEATHER ROUNDUP FOR EASTERN KANSAS AND NORTHWEST MISSOURI
NATIONAL WEATHER SERVICE KANSAS CITY/PLEASANT HILL MO
1200 PM CDT FRI MAY 27 2016

KSZ040-057-103>105-MOZ028-029-037-043-271800-
...KANSAS CITY METROPOLITAN AREA...

CITY           SKY/WX    TMP DP  RH WIND       PRES   REMARKS
K.C. INTL      CLOUDY    72  63  73 SW9       29.75R
K.C. DOWNTOWN  MOSUNNY   75  61  61 SW12      29.74R
LEES SUMMIT    PTSUNNY   74  62  66 SW15      29.75S
OLATHE - IXD   CLOUDY    72  63  73 S9        29.75S
OLATHE - OJC   CLOUDY    72  62  71 S10       29.74F
LAWRENCE       CLOUDY    70  62  76 S8        29.74F

$$

MOZ001>008-011>017-020>025-030>033-038>040-044>046-053-054-271800-
...NORTHERN AND CENTRAL MISSOURI...

CITY           SKY/WX    TMP DP  RH WIND       PRES   REMARKS
ST. JOSEPH     MOSUNNY   70  63  78 SW7       29.75R
MOSBY          PTSUNNY   73  61  64 S8        29.74S
WARRENSBURG    CLOUDY    73  64  73 S12G21    29.75S
WHITEMAN AFB   PTSUNNY   76  70  80 S13G21    29.75S
CLINTON        CLOUDY    75  66  73 S10G16    29.78R
SEDALIA        CLOUDY    79  69  71 S17       29.78R
WARSAW         NOT AVBL
CHILLICOTHE      N/A     79  66  64 S13G21    29.74R
KIRKSVILLE     LGT RAIN  77  68  73 S16G24    29.77S

$$

MOZ041-047>049-056>058-063>065-088>090-097-271800-
...EASTERN AND SOUTHERN MISSOURI...

CITY           SKY/WX    TMP DP  RH WIND       PRES   REMARKS
ST. LOUIS INTL CLOUDY    74  67  78 S14G22    29.86S
SPIRIT OF STL  CLOUDY    74  69  85 S9        29.84F
COLUMBIA       PTSUNNY   77  69  76 S15G24    29.80R
JEFFERSON CITY CLOUDY    77  67  71 S15G22    29.79F
ROLLA          PTSUNNY   73  67  81 S13       29.82S
SPRINGFIELD    PTSUNNY   74  66  76 S14       29.80S
BRANSON        PTSUNNY   73  66  78 S6        29.83S
JOPLIN         CLOUDY    74  66  76 S13       29.75F
WEST PLAINS    CLOUDY    74  66  76 S13G26    29.87R

$$

IAZ060-094-KSZ022-034>040-054-083-096-NEZ052-066-093-271800-
...KANSAS...SOUTHEAST NEBRASKA AND IOWA...

CITY           SKY/WX    TMP DP  RH WIND       PRES   REMARKS
TOPEKA         CLOUDY    70  60  70 S7        29.73F
MANHATTAN      CLOUDY    71  58  63 SE8       29.73F
EMPORIA        MOSUNNY   71  64  78 S14       29.72S
CHANUTE        CLOUDY    74  66  76 S13       29.72S
WICHITA        CLOUDY    72  65  78 SE9       29.70R
OMAHA          PTSUNNY   72  61  68 S9        29.76R
LINCOLN        CLOUDY    68  59  73 SW6       29.79R
FALLS CITY     MOSUNNY   72  64  76 W8        29.73F
LAMONI         CLOUDY    69  66  90 SW10      29.75R
DES MOINES     LGT RAIN  66  63  90 CALM      29.75R FOG

$$





USA.gov is the U.S. government's official web portal to all federal, state and local government web resources and services.